,,Stat6,,Stat2,,Stat8,,Stat9,,Stat10,,Wind1,,Wind1,
time,status,PA1M_AVG,status,PR1M_SUM,status,RH1M_AVG,status,SR1M_AVG,status,TA1M_AVG,status,W1dAve1m,status,W1sAve1m,
2005-10-02, 00:00:00,VALID,920.302,VALID,0,VALID,100,VALID,0.0509425,VALID,19.9919,VALID,22,VALID,0.812881,
2005-10-02, 00:01:00,VALID,920.34,VALID,0,VALID,100,VALID,0.0169808,VALID,19.9784,VALID,24,VALID,0.928416,
2005-10-02, 00:02:00,VALID,920.369,VALID,0,VALID,100,VALID,-0.0679233,VALID,19.9705,VALID,14,VALID,0.646019,
2005-10-02, 00:03:00,VALID,920.408,VALID,0,VALID,100,VALID,-0.0509425,VALID,19.938,VALID,345,VALID,0.561198,
2005-10-02, 00:04:00,VALID,920.418,VALID,0,VALID,100,VALID,-0.0849042,VALID,19.9188,VALID,347,VALID,0.542597,
2005-10-02, 00:05:00,VALID,920.429,VALID,0,VALID,100,VALID,-0.0679233,VALID,19.9124,VALID,347,VALID,0.577195,
2005-10-02, 00:06:00,VALID,920.432,VALID,0,VALID,100,VALID,-0.0849042,VALID,19.9156,VALID,360,VALID,0.856831,
2005-10-02, 00:07:00,VALID,920.418,VALID,0,VALID,100,VALID,-0.0509425,VALID,19.8769,VALID,347,VALID,0.626302,
2005-10-02, 00:08:00,VALID,920.405,VALID,0,VALID,100,VALID,-0.101885,VALID,19.9027,VALID,9,VALID,0.753089,
2005-10-02, 00:09:00,VALID,920.405,VALID,0,VALID,100,VALID,-0.101885,VALID,19.8997,VALID,352,VALID,0.753729,
2005-10-02, 00:10:00,VALID,920.362,VALID,0,VALID,100,VALID,-0.101885,VALID,19.8997,VALID,331,VALID,0.717748,
2005-10-02, 00:11:00,VALID,920.351,VALID,0,VALID,100,VALID,-0.0679233,VALID,19.9188,VALID,352,VALID,0.664621,
2005-10-02, 00:12:00,VALID,920.313,VALID,0,VALID,100,VALID,-0.0339617,VALID,19.9231,VALID,322,VALID,0.907885,
2005-10-02, 00:13:00,VALID,920.275,VALID,0,VALID,100,VALID,-0.0509425,VALID,19.8868,VALID,320,VALID,0.423242,
2005-10-02, 00:14:00,VALID,920.24,VALID,0,VALID,100,VALID,-0.0169808,VALID,19.8898,VALID,350,VALID,0.720703,
2005-10-02, 00:15:00,VALID,920.2,VALID,0,VALID,100,VALID,-0.0339617,VALID,19.8674,VALID,360,VALID,1.29757,
2005-10-02, 00:16:00,VALID,920.183,VALID,0,VALID,100,VALID,-0.0679233,VALID,19.8605,VALID,352,VALID,0.606027,
2005-10-02, 00:17:00,VALID,920.161,VALID,0,VALID,100,VALID,0.0339617,VALID,19.8721,VALID,343,VALID,0.405297,
2005-10-02, 00:18:00,VALID,920.157,VALID,0,VALID,100,VALID,0.0339617,VALID,19.8947,VALID,347,VALID,0.409896,
2005-10-02, 00:19:00,VALID,920.158,VALID,0,VALID,100,VALID,0.0509425,VALID,19.8848,VALID,352,VALID,0.377344,
2005-10-02, 00:20:00,VALID,920.15,VALID,0,VALID,100,VALID,0.0339617,VALID,19.8853,VALID,351,VALID,0.425872,
2005-10-02, 00:21:00,VALID,920.152,VALID,0,VALID,100,VALID,0.0169808,VALID,19.8848,VALID,11,VALID,0.526101,
2005-10-02, 00:22:00,VALID,920.139,VALID,0,VALID,100,VALID,0,VALID,19.8691,VALID,356,VALID,0.850654,
2005-10-02, 00:23:00,VALID,920.134,VALID,0,VALID,100,VALID,0.0339617,VALID,19.8724,VALID,12,VALID,0.495821,
2005-10-02, 00:24:00,VALID,920.121,VALID,0,VALID,100,VALID,0,VALID,19.8726,VALID,8,VALID,0.181212,
2005-10-02, 00:25:00,VALID,920.105,VALID,0,VALID,100,VALID,0.0509425,VALID,19.8793,VALID,360,VALID,0.449886,
2005-10-02, 00:26:00,VALID,920.052,VALID,0,VALID,100,VALID,0.0339617,VALID,19.856,VALID,359,VALID,0.482067,
2005-10-02, 00:27:00,VALID,920.02,VALID,0,VALID,100,VALID,0.0679233,VALID,19.8369,VALID,343,VALID,0.475229,
2005-10-02, 00:28:00,VALID,919.973,VALID,0,VALID,100,VALID,0.0169808,VALID,19.8172,VALID,311,VALID,0.382631,
2005-10-02, 00:29:00,VALID,919.916,VALID,0,VALID,100,VALID,0.0849042,VALID,19.8239,VALID,308,VALID,0.215701,
2005-10-02, 00:30:00,VALID,919.884,VALID,0,VALID,100,VALID,0.0509425,VALID,19.8366,VALID,308,VALID,0.241235,
2005-10-02, 00:31:00,VALID,919.838,VALID,0,VALID,100,VALID,0.0509425,VALID,19.8339,VALID,308,VALID,0.065952,
2005-10-02, 00:32:00,VALID,919.793,VALID,0,VALID,100,VALID,-0.0849042,VALID,19.8386,VALID,308,VALID,0,
2005-10-02, 00:33:00,VALID,919.748,VALID,0,VALID,100,VALID,-0.0679233,VALID,19.8508,VALID,308,VALID,0,
2005-10-02, 00:34:00,VALID,919.714,VALID,0,VALID,100,VALID,-0.0509425,VALID,19.8408,VALID,308,VALID,0,
2005-10-02, 00:35:00,VALID,919.676,VALID,0,VALID,100,VALID,0,VALID,19.8545,VALID,308,VALID,0,
2005-10-02, 00:36:00,VALID,919.653,VALID,0,VALID,100,VALID,-0.0169808,VALID,19.8446,VALID,308,VALID,0,
2005-10-02, 00:37:00,VALID,919.644,VALID,0,VALID,100,VALID,-0.0339617,VALID,19.8508,VALID,308,VALID,0,
2005-10-02, 00:38:00,VALID,919.638,VALID,0,VALID,100,VALID,-0.0509425,VALID,19.8669,VALID,308,VALID,0,
2005-10-02, 00:39:00,VALID,919.631,VALID,0,VALID,100,VALID,-0.0509425,VALID,19.8937,VALID,308,VALID,0,
2005-10-02, 00:40:00,VALID,919.632,VALID,0,VALID,100,VALID,-0.0339617,VALID,19.8898,VALID,308,VALID,0,
2005-10-02, 00:41:00,VALID,919.615,VALID,0,VALID,100,VALID,-0.0509425,VALID,19.8771,VALID,308,VALID,0,
2005-10-02, 00:42:00,VALID,919.615,VALID,0,VALID,100,VALID,-0.0509425,VALID,19.8806,VALID,308,VALID,0,
2005-10-02, 00:43:00,VALID,919.621,VALID,0,VALID,100,VALID,-0.0339617,VALID,19.8776,VALID,308,VALID,0.0193452,
2005-10-02, 00:44:00,VALID,919.608,VALID,0,VALID,100,VALID,-0.0679233,VALID,19.848,VALID,308,VALID,0.0252404,
2005-10-02, 00:45:00,VALID,919.592,VALID,0,VALID,100,VALID,-0.0849042,VALID,19.8287,VALID,308,VALID,0,
2005-10-02, 00:46:00,VALID,919.566,VALID,0,VALID,100,VALID,-0.0679233,VALID,19.8227,VALID,308,VALID,0,
2005-10-02, 00:47:00,VALID,919.537,VALID,0,VALID,100,VALID,-0.0509425,VALID,19.8321,VALID,346,VALID,0.417629,
2005-10-02, 00:48:00,VALID,919.489,VALID,0,VALID,100,VALID,-0.0509425,VALID,19.816,VALID,12,VALID,0.353338,
2005-10-02, 00:49:00,VALID,919.449,VALID,0,VALID,100,VALID,-0.0679233,VALID,19.8095,VALID,12,VALID,0.0383523,
2005-10-02, 00:50:00,VALID,919.4,VALID,0,VALID,100,VALID,-0.0509425,VALID,19.7837,VALID,12,VALID,0.0649306,
2005-10-02, 00:51:00,VALID,919.329,VALID,0,VALID,100,VALID,-0.0849042,VALID,19.7842,VALID,12,VALID,0.00508721,
2005-10-02, 00:52:00,VALID,919.29,VALID,0,VALID,100,VALID,-0.0849042,VALID,19.768,VALID,12,VALID,0.090625,
2005-10-02, 00:53:00,VALID,919.261,VALID,0,VALID,100,VALID,-0.0849042,VALID,19.7584,VALID,12,VALID,0.00327035,
2005-10-02, 00:54:00,VALID,919.249,VALID,0,VALID,100,VALID,-0.0679233,VALID,19.735,VALID,12,VALID,0,
2005-10-02, 00:55:00,VALID,919.221,VALID,0,VALID,100,VALID,-0.0339617,VALID,19.7124,VALID,12,VALID,0.00417878,
2005-10-02, 00:56:00,VALID,919.211,VALID,0,VALID,100,VALID,-0.0509425,VALID,19.6938,VALID,358,VALID,0.19779,
2005-10-02, 00:57:00,VALID,919.188,VALID,0,VALID,100,VALID,-0.0509425,VALID,19.6642,VALID,241,VALID,0.58939,
2005-10-02, 00:58:00,VALID,919.167,VALID,0,VALID,100,VALID,0,VALID,19.6578,VALID,231,VALID,0.255766,
2005-10-02, 00:59:00,VALID,919.148,VALID,0,VALID,100,VALID,-0.0849042,VALID,19.6712,VALID,231,VALID,0.0811435,
2005-10-02, 01:00:00,VALID,919.14,VALID,0,VALID,100,VALID,-0.0679233,VALID,19.6674,VALID,231,VALID,0.182617,
2005-10-02, 01:01:00,VALID,919.134,VALID,0,VALID,100,VALID,-0.0679233,VALID,19.6709,VALID,231,VALID,0.324505,
2005-10-02, 01:02:00,VALID,919.143,VALID,0,VALID,100,VALID,0.0169808,VALID,19.6597,VALID,231,VALID,0.0976563,
2005-10-02, 01:03:00,VALID,919.135,VALID,0,VALID,100,VALID,0,VALID,19.6794,VALID,231,VALID,0,
2005-10-02, 01:04:00,VALID,919.147,VALID,0,VALID,100,VALID,0,VALID,19.6831,VALID,231,VALID,0.0093006,
2005-10-02, 01:05:00,VALID,919.151,VALID,0,VALID,100,VALID,0,VALID,19.6764,VALID,231,VALID,0.00272529,
2005-10-02, 01:06:00,VALID,919.161,VALID,0,VALID,100,VALID,-0.0169808,VALID,19.6766,VALID,231,VALID,0.190387,
2005-10-02, 01:07:00,VALID,919.155,VALID,0,VALID,100,VALID,0.0339617,VALID,19.6568,VALID,235,VALID,0.505664,
2005-10-02, 01:08:00,VALID,919.17,VALID,0,VALID,100,VALID,0,VALID,19.6573,VALID,240,VALID,0.802989,
2005-10-02, 01:09:00,VALID,919.174,VALID,0,VALID,100,VALID,0,VALID,19.6704,VALID,248,VALID,0.643973,
2005-10-02, 01:10:00,VALID,919.178,VALID,0,VALID,100,VALID,0,VALID,19.6707,VALID,279,VALID,0.562145,
2005-10-02, 01:11:00,VALID,919.19,VALID,0,VALID,100,VALID,-0.0169808,VALID,19.6632,VALID,279,VALID,0.334069,
2005-10-02, 01:12:00,VALID,919.173,VALID,0,VALID,100,VALID,-0.0169808,VALID,19.6831,VALID,279,VALID,0.0739462,
2005-10-02, 01:13:00,VALID,919.163,VALID,0,VALID,100,VALID,0,VALID,19.6955,VALID,289,VALID,0.436357,
2005-10-02, 01:14:00,VALID,919.135,VALID,0,VALID,100,VALID,0,VALID,19.7055,VALID,286,VALID,0.0218023,
2005-10-02, 01:15:00,VALID,919.113,VALID,0,VALID,100,VALID,0,VALID,19.7052,VALID,286,VALID,0,
2005-10-02, 01:16:00,VALID,919.086,VALID,0,VALID,100,VALID,0,VALID,19.7154,VALID,286,VALID,0.00817587,
2005-10-02, 01:17:00,VALID,919.084,VALID,0,VALID,100,VALID,0,VALID,19.7286,VALID,327,VALID,0.572656,
2005-10-02, 01:18:00,VALID,919.085,VALID,0,VALID,100,VALID,-0.0169808,VALID,19.7216,VALID,358,VALID,0.439098,
2005-10-02, 01:19:00,VALID,919.073,VALID,0,VALID,100,VALID,0,VALID,19.7154,VALID,358,VALID,0.0553977,
2005-10-02, 01:20:00,VALID,919.084,VALID,0,VALID,100,VALID,0,VALID,19.7055,VALID,358,VALID,0.0835756,
2005-10-02, 01:21:00,VALID,919.079,VALID,0,VALID,100,VALID,-0.0339617,VALID,19.7089,VALID,345,VALID,0.417268,
2005-10-02, 01:22:00,VALID,919.073,VALID,0,VALID,100,VALID,0.0169808,VALID,19.7027,VALID,16,VALID,0.406783,
2005-10-02, 01:23:00,VALID,919.063,VALID,0,VALID,100,VALID,0,VALID,19.7025,VALID,16,VALID,0.152253,
2005-10-02, 01:24:00,VALID,919.062,VALID,0,VALID,100,VALID,0,VALID,19.6987,VALID,16,VALID,0.266927,
2005-10-02, 01:25:00,VALID,919.048,VALID,0,VALID,100,VALID,0,VALID,19.7022,VALID,20,VALID,0.841974,
2005-10-02, 01:26:00,VALID,919.034,VALID,0,VALID,100,VALID,0,VALID,19.7089,VALID,29,VALID,0.828869,
2005-10-02, 01:27:00,VALID,919.034,VALID,0,VALID,100,VALID,0,VALID,19.7253,VALID,27,VALID,0.420541,
2005-10-02, 01:28:00,VALID,919.005,VALID,0,VALID,100,VALID,-0.0169808,VALID,19.7382,VALID,23,VALID,0.0412946,
2005-10-02, 01:29:00,VALID,918.997,VALID,0,VALID,100,VALID,0,VALID,19.7315,VALID,5,VALID,0.338778,
2005-10-02, 01:30:00,VALID,918.984,VALID,0,VALID,100,VALID,0,VALID,19.7412,VALID,14,VALID,0.192894,
2005-10-02, 01:31:00,VALID,918.978,VALID,0,VALID,100,VALID,0,VALID,19.741,VALID,29,VALID,0.184338,
2005-10-02, 01:32:00,VALID,918.965,VALID,0,VALID,100,VALID,0,VALID,19.7377,VALID,28,VALID,0.0014881,
2005-10-02, 01:33:00,VALID,918.958,VALID,0,VALID,100,VALID,0,VALID,19.7444,VALID,28,VALID,0.00106534,
2005-10-02, 01:34:00,VALID,918.947,VALID,0,VALID,100,VALID,0,VALID,19.7504,VALID,28,VALID,0.00454215,
2005-10-02, 01:35:00,VALID,918.918,VALID,0,VALID,100,VALID,0,VALID,19.7539,VALID,28,VALID,0.00372024,
2005-10-02, 01:36:00,VALID,918.9,VALID,0,VALID,100,VALID,0,VALID,19.7569,VALID,28,VALID,0.14566,
2005-10-02, 01:37:00,VALID,918.876,VALID,0,VALID,100,VALID,-0.0169808,VALID,19.7929,VALID,27,VALID,0.317187,
2005-10-02, 01:38:00,VALID,918.856,VALID,0,VALID,100,VALID,-0.0169808,VALID,19.809,VALID,26,VALID,0.323509,
2005-10-02, 01:39:00,VALID,918.821,VALID,0,VALID,100,VALID,-0.0169808,VALID,19.819,VALID,26,VALID,0.401708,
2005-10-02, 01:40:00,VALID,918.798,VALID,0,VALID,100,VALID,0.0169808,VALID,19.8085,VALID,25,VALID,0.0225074,
2005-10-02, 01:41:00,VALID,918.782,VALID,0,VALID,100,VALID,0,VALID,19.8058,VALID,25,VALID,0.0110518,
2005-10-02, 01:42:00,VALID,918.773,VALID,0,VALID,100,VALID,0,VALID,19.7864,VALID,25,VALID,0,
2005-10-02, 01:43:00,VALID,918.749,VALID,0,VALID,100,VALID,0.0169808,VALID,19.7733,VALID,25,VALID,0,
2005-10-02, 01:44:00,VALID,918.715,VALID,0,VALID,100,VALID,0.0169808,VALID,19.7571,VALID,53,VALID,0.305233,
2005-10-02, 01:45:00,VALID,918.7,VALID,0,VALID,100,VALID,0,VALID,19.7507,VALID,41,VALID,0.0403054,
2005-10-02, 01:46:00,VALID,918.7,VALID,0,VALID,100,VALID,0,VALID,19.7437,VALID,41,VALID,0.0601562,
2005-10-02, 01:47:00,VALID,918.681,VALID,0,VALID,100,VALID,-0.101885,VALID,19.7584,VALID,41,VALID,0.0576637,
2005-10-02, 01:48:00,VALID,918.677,VALID,0,VALID,100,VALID,-0.101885,VALID,19.7718,VALID,41,VALID,0,
2005-10-02, 01:49:00,VALID,918.661,VALID,0,VALID,100,VALID,-0.135847,VALID,19.7743,VALID,42,VALID,0.350419,
2005-10-02, 01:50:00,VALID,918.645,VALID,0,VALID,100,VALID,-0.118866,VALID,19.7941,VALID,32,VALID,0.2234,
2005-10-02, 01:51:00,VALID,918.62,VALID,0,VALID,100,VALID,-0.101885,VALID,19.81,VALID,32,VALID,0.192645,
2005-10-02, 01:52:00,VALID,918.597,VALID,0,VALID,100,VALID,-0.101885,VALID,19.8202,VALID,334,VALID,0.555596,
2005-10-02, 01:53:00,VALID,918.563,VALID,0,VALID,100,VALID,-0.101885,VALID,19.8359,VALID,302,VALID,0.455433,
2005-10-02, 01:54:00,VALID,918.537,VALID,0,VALID,100,VALID,-0.118866,VALID,19.8366,VALID,265,VALID,0.0935547,
2005-10-02, 01:55:00,VALID,918.533,VALID,0,VALID,100,VALID,-0.101885,VALID,19.8361,VALID,312,VALID,0.5,
2005-10-02, 01:56:00,VALID,918.528,VALID,0,VALID,100,VALID,-0.135847,VALID,19.8359,VALID,37,VALID,0.889353,
2005-10-02, 01:57:00,VALID,918.489,VALID,0,VALID,100,VALID,-0.135847,VALID,19.7944,VALID,140,VALID,1.44673,
2005-10-02, 01:58:00,VALID,918.508,VALID,0,VALID,100,VALID,-0.101885,VALID,19.7591,VALID,30,VALID,1.28066,
2005-10-02, 01:59:00,VALID,918.533,VALID,0,VALID,100,VALID,-0.0849042,VALID,19.742,VALID,83,VALID,0.674543,
2005-10-02, 02:00:00,VALID,918.527,VALID,0,VALID,100,VALID,-0.118866,VALID,19.7363,VALID,137,VALID,0.844151,
2005-10-02, 02:01:00,VALID,918.538,VALID,0,VALID,100,VALID,-0.101885,VALID,19.694,VALID,101,VALID,0.875347,
2005-10-02, 02:02:00,VALID,918.542,VALID,0,VALID,100,VALID,-0.0169808,VALID,19.6545,VALID,184,VALID,0.578295,
2005-10-02, 02:03:00,VALID,918.553,VALID,0,VALID,100,VALID,0,VALID,19.6056,VALID,204,VALID,0.113381,
2005-10-02, 02:04:00,VALID,918.556,VALID,0,VALID,100,VALID,-0.0169808,VALID,19.5765,VALID,108,VALID,0.548781,
2005-10-02, 02:05:00,VALID,918.547,VALID,0,VALID,100,VALID,0.0169808,VALID,19.5601,VALID,17,VALID,0.630269,
2005-10-02, 02:06:00,VALID,918.537,VALID,0,VALID,100,VALID,0,VALID,19.5666,VALID,39,VALID,0.321039,
2005-10-02, 02:07:00,VALID,918.526,VALID,0,VALID,100,VALID,0,VALID,19.5601,VALID,342,VALID,0.707589,
2005-10-02, 02:08:00,VALID,918.515,VALID,0,VALID,100,VALID,0,VALID,19.5373,VALID,322,VALID,0.290516,
2005-10-02, 02:09:00,VALID,918.507,VALID,0,VALID,100,VALID,-0.0169808,VALID,19.5346,VALID,221,VALID,0.463356,
2005-10-02, 02:10:00,VALID,918.49,VALID,0,VALID,100,VALID,0,VALID,19.5179,VALID,239,VALID,0.589286,
2005-10-02, 02:11:00,VALID,918.492,VALID,0,VALID,100,VALID,0,VALID,19.5085,VALID,237,VALID,0.0407366,
2005-10-02, 02:12:00,VALID,918.5,VALID,0,VALID,100,VALID,0,VALID,19.5216,VALID,299,VALID,0.338068,
2005-10-02, 02:13:00,VALID,918.506,VALID,0,VALID,100,VALID,0,VALID,19.5442,VALID,45,VALID,0.483285,
2005-10-02, 02:14:00,VALID,918.515,VALID,0,VALID,100,VALID,0,VALID,19.5408,VALID,43,VALID,0.0598366,
2005-10-02, 02:15:00,VALID,918.51,VALID,0,VALID,100,VALID,0,VALID,19.547,VALID,44,VALID,0.0464939,
2005-10-02, 02:16:00,VALID,918.506,VALID,0,VALID,100,VALID,-0.0169808,VALID,19.541,VALID,116,VALID,0.522079,
2005-10-02, 02:17:00,VALID,918.521,VALID,0,VALID,100,VALID,-0.0169808,VALID,19.5187,VALID,211,VALID,0.450267,
2005-10-02, 02:18:00,VALID,918.525,VALID,0,VALID,100,VALID,-0.0169808,VALID,19.499,VALID,211,VALID,0.420987,
2005-10-02, 02:19:00,VALID,918.523,VALID,0,VALID,100,VALID,0,VALID,19.4958,VALID,206,VALID,0.635538,
2005-10-02, 02:20:00,VALID,918.522,VALID,0,VALID,100,VALID,0,VALID,19.4633,VALID,234,VALID,0.867188,
2005-10-02, 02:21:00,VALID,918.506,VALID,0,VALID,100,VALID,-0.0169808,VALID,19.4315,VALID,240,VALID,0.899926,
2005-10-02, 02:22:00,VALID,918.483,VALID,0,VALID,100,VALID,-0.0339617,VALID,19.4019,VALID,238,VALID,0.700838,
2005-10-02, 02:23:00,VALID,918.459,VALID,0,VALID,100,VALID,0,VALID,19.3987,VALID,248,VALID,0.237038,
2005-10-02, 02:24:00,VALID,918.43,VALID,0,VALID,100,VALID,0,VALID,19.4441,VALID,359,VALID,0.705915,
2005-10-02, 02:25:00,VALID,918.41,VALID,0,VALID,100,VALID,-0.0169808,VALID,19.4799,VALID,24,VALID,0.344866,
2005-10-02, 02:26:00,VALID,918.404,VALID,0,VALID,100,VALID,0,VALID,19.4824,VALID,132,VALID,0.502477,
2005-10-02, 02:27:00,VALID,918.391,VALID,0,VALID,100,VALID,-0.0169808,VALID,19.4734,VALID,176,VALID,0.431593,
2005-10-02, 02:28:00,VALID,918.353,VALID,0,VALID,100,VALID,-0.0169808,VALID,19.4739,VALID,176,VALID,0.246003,
2005-10-02, 02:29:00,VALID,918.307,VALID,0.2,VALID,100,VALID,-0.0169808,VALID,19.4349,VALID,176,VALID,0.167578,
2005-10-02, 02:30:00,VALID,918.258,VALID,0,VALID,100,VALID,-0.0169808,VALID,19.4215,VALID,93,VALID,0.258003,
2005-10-02, 02:31:00,VALID,918.236,VALID,0,VALID,100,VALID,-0.0169808,VALID,19.3989,VALID,325,VALID,0.347565,
2005-10-02, 02:32:00,VALID,918.206,VALID,0,VALID,100,VALID,-0.0169808,VALID,19.3927,VALID,308,VALID,0.23819,
2005-10-02, 02:33:00,VALID,918.156,VALID,0.2,VALID,100,VALID,-0.0169808,VALID,19.3835,VALID,308,VALID,0,
2005-10-02, 02:34:00,VALID,918.13,VALID,0,VALID,100,VALID,0,VALID,19.383,VALID,308,VALID,0.000372024,
2005-10-02, 02:35:00,VALID,918.106,VALID,0,VALID,100,VALID,-0.0339617,VALID,19.3925,VALID,331,VALID,0.32867,
2005-10-02, 02:36:00,VALID,918.089,VALID,0,VALID,100,VALID,0,VALID,19.4121,VALID,30,VALID,0.645064,
2005-10-02, 02:37:00,VALID,918.086,VALID,0.2,VALID,100,VALID,0.0169808,VALID,19.4377,VALID,30,VALID,0.471608,
2005-10-02, 02:38:00,VALID,918.076,VALID,0,VALID,100,VALID,0,VALID,19.4506,VALID,27,VALID,0.428571,
2005-10-02, 02:39:00,VALID,918.059,VALID,0,VALID,100,VALID,0,VALID,19.4317,VALID,21,VALID,0.916788,
2005-10-02, 02:40:00,VALID,918.076,VALID,0,VALID,100,VALID,-0.0169808,VALID,19.4056,VALID,14,VALID,0.94122,
2005-10-02, 02:41:00,VALID,918.072,VALID,0.2,VALID,100,VALID,0,VALID,19.3992,VALID,22,VALID,1.24219,
2005-10-02, 02:42:00,VALID,918.072,VALID,0,VALID,100,VALID,0.0169808,VALID,19.3865,VALID,15,VALID,1.12855,
2005-10-02, 02:43:00,VALID,918.076,VALID,0,VALID,100,VALID,0,VALID,19.3863,VALID,12,VALID,0.831676,
2005-10-02, 02:44:00,VALID,918.071,VALID,0,VALID,100,VALID,0,VALID,19.3701,VALID,356,VALID,0.696584,
2005-10-02, 02:45:00,VALID,918.068,VALID,0,VALID,100,VALID,-0.0339617,VALID,19.3542,VALID,7,VALID,1.02548,
2005-10-02, 02:46:00,VALID,918.029,VALID,0,VALID,100,VALID,-0.0169808,VALID,19.3219,VALID,359,VALID,1.30323,
2005-10-02, 02:47:00,VALID,918.007,VALID,0,VALID,100,VALID,0,VALID,19.2998,VALID,9,VALID,1.64082,
2005-10-02, 02:48:00,VALID,917.975,VALID,0,VALID,100,VALID,-0.0169808,VALID,19.267,VALID,9,VALID,1.74355,
2005-10-02, 02:49:00,VALID,917.966,VALID,0,VALID,100,VALID,0,VALID,19.2407,VALID,16,VALID,2.05167,
2005-10-02, 02:50:00,VALID,917.962,VALID,0,VALID,100,VALID,-0.0169808,VALID,19.2218,VALID,8,VALID,2.22129,
2005-10-02, 02:51:00,VALID,917.976,VALID,0,VALID,100,VALID,0,VALID,19.1893,VALID,8,VALID,1.46328,
2005-10-02, 02:52:00,VALID,917.983,VALID,0,VALID,100,VALID,-0.0169808,VALID,19.1824,VALID,9,VALID,1.42898,
2005-10-02, 02:53:00,VALID,918.008,VALID,0,VALID,100,VALID,0,VALID,19.166,VALID,10,VALID,1.34747,
2005-10-02, 02:54:00,VALID,918.023,VALID,0,VALID,100,VALID,0,VALID,19.163,VALID,24,VALID,0.614258,
2005-10-02, 02:55:01,VALID,918.06,VALID,0,VALID,100,VALID,0,VALID,19.1831,VALID,12,VALID,0.974657,
2005-10-02, 02:56:00,VALID,918.084,VALID,0,VALID,100,VALID,0,VALID,19.1667,VALID,360,VALID,0.888081,
2005-10-02, 02:57:00,VALID,918.098,VALID,0,VALID,100,VALID,0.0169808,VALID,19.1665,VALID,304,VALID,0.796689,
2005-10-02, 02:58:00,VALID,918.121,VALID,0,VALID,100,VALID,-0.0169808,VALID,19.1635,VALID,285,VALID,0.239281,
2005-10-02, 02:59:00,VALID,918.118,VALID,0,VALID,100,VALID,-0.0169808,VALID,19.1905,VALID,323,VALID,0.419141,
2005-10-02, 03:00:00,VALID,918.114,VALID,0,VALID,100,VALID,0,VALID,19.1925,VALID,349,VALID,0.70957,
2005-10-02, 03:01:00,VALID,918.124,VALID,0,VALID,100,VALID,0,VALID,19.2375,VALID,356,VALID,1.2136,
2005-10-02, 03:02:00,VALID,918.114,VALID,0,VALID,100,VALID,0.0169808,VALID,19.2251,VALID,16,VALID,1.01154,
2005-10-02, 03:03:00,VALID,918.126,VALID,0,VALID,100,VALID,0.0169808,VALID,19.2377,VALID,19,VALID,0.969113,
2005-10-02, 03:04:00,VALID,918.142,VALID,0,VALID,100,VALID,0.0169808,VALID,19.2504,VALID,11,VALID,0.804514,
2005-10-02, 03:05:00,VALID,918.16,VALID,0,VALID,100,VALID,0.0339617,VALID,19.2502,VALID,336,VALID,0.631904,
2005-10-02, 03:06:01,VALID,918.17,VALID,0,VALID,100,VALID,0.0169808,VALID,19.2375,VALID,21,VALID,1.41933,
2005-10-02, 03:07:00,VALID,918.183,VALID,0,VALID,100,VALID,0,VALID,19.2055,VALID,12,VALID,1.42987,
2005-10-02, 03:08:00,VALID,918.208,VALID,0,VALID,100,VALID,0.0169808,VALID,19.1893,VALID,22,VALID,1.00563,
2005-10-02, 03:09:00,VALID,918.228,VALID,0,VALID,100,VALID,-0.0169808,VALID,19.1863,VALID,6,VALID,0.75,
2005-10-02, 03:10:00,VALID,918.236,VALID,0,VALID,100,VALID,0,VALID,19.1769,VALID,9,VALID,0.62593,
2005-10-02, 03:11:00,VALID,918.246,VALID,0,VALID,100,VALID,-0.0339617,VALID,19.1605,VALID,1,VALID,0.906428,
2005-10-02, 03:12:01,VALID,918.243,VALID,0,VALID,100,VALID,0,VALID,19.131,VALID,5,VALID,1.06585,
2005-10-02, 03:13:00,VALID,918.236,VALID,0,VALID,100,VALID,0,VALID,19.1024,VALID,23,VALID,1.27515,
2005-10-02, 03:14:00,VALID,918.212,VALID,0,VALID,100,VALID,0,VALID,19.0957,VALID,11,VALID,1.13802,
2005-10-02, 03:15:00,VALID,918.192,VALID,0,VALID,100,VALID,0,VALID,19.1019,VALID,12,VALID,1.48881,
2005-10-02, 03:16:00,VALID,918.176,VALID,0,VALID,100,VALID,0.0169808,VALID,19.0927,VALID,9,VALID,1.05305,
2005-10-02, 03:17:00,VALID,918.156,VALID,0,VALID,100,VALID,0,VALID,19.0803,VALID,356,VALID,0.971475,
2005-10-02, 03:18:00,VALID,918.146,VALID,0,VALID,100,VALID,0,VALID,19.0828,VALID,317,VALID,0.585115,
2005-10-02, 03:19:00,VALID,918.133,VALID,0,VALID,100,VALID,0,VALID,19.1084,VALID,301,VALID,0.266959,
2005-10-02, 03:20:00,VALID,918.119,VALID,0,VALID,100,VALID,0,VALID,19.1451,VALID,301,VALID,0.0456032,
2005-10-02, 03:21:00,VALID,918.097,VALID,0,VALID,100,VALID,0,VALID,19.1513,VALID,336,VALID,0.541061,
2005-10-02, 03:22:00,VALID,918.075,VALID,0,VALID,100,VALID,0,VALID,19.1707,VALID,12,VALID,0.831759,
2005-10-02, 03:23:00,VALID,918.074,VALID,0,VALID,100,VALID,0,VALID,19.1766,VALID,14,VALID,1.16202,
2005-10-02, 03:24:00,VALID,918.064,VALID,0,VALID,100,VALID,0,VALID,19.1543,VALID,350,VALID,1.18887,
2005-10-02, 03:25:00,VALID,918.056,VALID,0,VALID,100,VALID,-0.0339617,VALID,19.1488,VALID,360,VALID,0.939732,
2005-10-02, 03:26:00,VALID,918.051,VALID,0,VALID,100,VALID,0,VALID,19.1031,VALID,18,VALID,1.58687,
2005-10-02, 03:27:00,VALID,918.057,VALID,0,VALID,100,VALID,-0.0169808,VALID,19.0899,VALID,22,VALID,1.39517,
2005-10-02, 03:28:00,VALID,918.064,VALID,0,VALID,100,VALID,-0.0169808,VALID,19.1029,VALID,4,VALID,0.758743,
2005-10-02, 03:29:00,VALID,918.058,VALID,0,VALID,100,VALID,0,VALID,19.0966,VALID,357,VALID,1.35042,
2005-10-02, 03:30:01,VALID,918.028,VALID,0,VALID,100,VALID,-0.0169808,VALID,19.0907,VALID,7,VALID,1.10429,
2005-10-02, 03:31:01,VALID,918.022,VALID,0,VALID,100,VALID,-0.0169808,VALID,19.0537,VALID,355,VALID,0.725521,
2005-10-02, 03:32:01,VALID,918.019,VALID,0,VALID,100,VALID,-0.0169808,VALID,19.0507,VALID,353,VALID,0.418064,
2005-10-02, 03:33:00,VALID,918.004,VALID,0,VALID,100,VALID,-0.0169808,VALID,19.0678,VALID,343,VALID,0.307413,
2005-10-02, 03:34:00,VALID,918.018,VALID,0,VALID,100,VALID,-0.0509425,VALID,19.0835,VALID,340,VALID,0.301758,
2005-10-02, 03:35:00,VALID,918.022,VALID,0,VALID,100,VALID,0,VALID,19.0902,VALID,262,VALID,0.57168,
2005-10-02, 03:36:00,VALID,918.028,VALID,0,VALID,100,VALID,-0.0169808,VALID,19.074,VALID,305,VALID,0.612216,
2005-10-02, 03:37:01,VALID,918.001,VALID,0,VALID,100,VALID,-0.0169808,VALID,19.0867,VALID,22,VALID,1.14184,
2005-10-02, 03:38:00,VALID,917.978,VALID,0,VALID,100,VALID,-0.0169808,VALID,19.0574,VALID,13,VALID,1.90072,
2005-10-02, 03:39:01,VALID,917.967,VALID,0,VALID,100,VALID,0,VALID,19.0221,VALID,11,VALID,1.34654,
2005-10-02, 03:40:01,VALID,917.956,VALID,0,VALID,100,VALID,0,VALID,19.0122,VALID,351,VALID,1.00986,
2005-10-02, 03:41:00,VALID,917.945,VALID,0,VALID,100,VALID,-0.0169808,VALID,18.9737,VALID,339,VALID,0.921512,
2005-10-02, 03:42:00,VALID,917.953,VALID,0,VALID,100,VALID,0,VALID,18.9705,VALID,336,VALID,0.373641,
2005-10-02, 03:43:01,VALID,917.949,VALID,0,VALID,100,VALID,-0.0169808,VALID,18.9573,VALID,332,VALID,0.123183,
2005-10-02, 03:44:00,VALID,917.964,VALID,0,VALID,100,VALID,0,VALID,18.9864,VALID,332,VALID,0.0110085,
2005-10-02, 03:45:01,VALID,917.977,VALID,0,VALID,100,VALID,0,VALID,18.9794,VALID,332,VALID,0.0843349,